Date,TemperatureHighF,TemperatureAvgF,TemperatureLowF,DewpointHighF,DewpointAvgF,DewpointLowF,HumidityHigh,HumidityAvg,HumidityLow,PressureMaxIn,PressureMinIn,WindSpeedMaxMPH,WindSpeedAvgMPH,GustSpeedMaxMPH,PrecipitationSumIn
2013-8-1,87,82,79,75,73,72,82,75,65,30.03,29.94,9,4,17,0.05
2013-8-2,88,80,76,75,72,70,84,78,61,30.03,29.90,8,3,14,0.09
2013-8-3,85,78,71,77,72,67,88,83,71,30.11,30.01,13,1,23,0.79
2013-8-4,91,80,73,78,73,68,88,81,63,30.10,29.96,15,1,26,0.70
2013-8-5,91,80,76,78,74,70,88,82,62,30.02,29.93,8,2,22,0.06
2013-8-6,90,81,76,78,74,70,88,80,67,29.97,29.88,7,2,13,0.01
2013-8-7,87,82,78,77,75,72,86,78,70,29.97,29.88,13,4,24,0.01
2013-8-8,88,84,81,77,75,73,79,75,67,29.99,29.91,11,7,19,0.01
2013-8-9,87,82,81,76,74,72,80,75,69,30.05,29.94,12,6,21,0.01
2013-8-10,88,85,81,77,75,73,80,74,68,30.10,30.02,12,7,17,0.00
2013-8-11,88,84,81,78,76,73,79,76,70,30.12,30.05,10,6,17,0.00
2013-8-21,86,83,78,78,76,72,85,80,75,30.06,29.98,13,6,19,0.18
2013-8-22,88,84,79,79,76,72,81,76,71,30.04,29.95,10,6,18,0.02
2013-8-23,88,83,79,78,75,73,83,77,69,30.00,29.92,11,4,16,0.00
2013-8-24,89,84,80,77,75,72,84,75,67,30.09,29.96,10,4,17,0.00
2013-8-25,85,80,77,76,70,-100,83,76,70,30.13,30.01,9,4,14,0.00
2013-8-26,87,81,74,76,73,68,85,78,67,30.10,30.00,10,3,17,0.37
2013-8-27,85,78,75,74,72,70,86,82,68,30.03,29.97,7,2,10,0.38
2013-8-28,87,83,78,75,74,71,81,74,67,30.01,29.94,8,5,19,0.02
2013-8-29,87,82,75,77,73,69,84,77,67,30.01,29.91,10,3,15,0.02
2013-8-30,82,79,77,75,73,72,85,83,79,29.96,29.91,1,0,5,0.00